sat.trackr.live / text

‹ back to catalog

QIANFAN-13

NORAD 60391 · 2024-140N

PAYLOAD ACTIVE UNKNOWN

§ Identity

Operator
Country
PRC
Launch date
2024-08-06
Launch site
TAISC
Launch vehicle
Mass (kg)
RCS (m²)

External: N2YO · Heavens-Above · Gunter

§ Orbital elements

Epoch: 2026-09-22T21:31:28.742016Z

Period
106.59 min
Inclination
88.9907°
Eccentricity
0.0015053
Mean motion
13.51023889 rev/d
Perigee alt
1,057.3 km
Apogee alt
1,079.7 km
Semi-major
7,446.6 km
B*
5.8271e-5
RAAN
270.0137°
Arg perigee
104.9709°
Mean anomaly
255.3110°
Rev number
10,563

§ Raw data

QIANFAN-131 60391U 24140N   26265.89686044  .00000050  00000+0  58271-4 0  99972 60391  88.9907 270.0137 0015053 104.9709 255.3110 13.51023889105638

JSON: /api/v1/satellites/60391 · /tle

For live sub-satellite position, see the globe view (requires WebGL).

§ Visibility from observer

Set your observer location to see the next 7 days of passes ≥ 10°. The values pass through the URL so the page stays shareable.

No JS? Fill the form by hand. The geolocation button needs JavaScript.